Location: Fredericton
(45.9636°N, 66.6431°W)
Time: 21:17:48
(UTC-03:00)

Vanguard 2 - All Passes

Search period start: 26 May 2022 00:00
Search period end: 05 June 2022 00:00
Orbit: 552 x 2935 km, 32.9° (Epoch: 26 May)

Date Brightness Start Highest point End Pass type
(mag) Time Alt. Az. Time Alt. Az. Time Alt. Az.
26 May - 05:54:24 10° SSW 06:03:40 27° SE 06:15:51 10° E daylight
26 May - 08:00:13 10° SW 08:13:00 47° SSE 08:29:21 10° E daylight
26 May - 10:08:59 10° WSW 10:24:04 51° S 10:40:34 10° ESE daylight
26 May - 12:19:58 10° W 12:35:00 37° SSW 12:49:01 10° SSE daylight
26 May - 14:35:28 10° WSW 14:44:06 16° SW 14:51:57 10° SSW daylight
27 May - 06:10:30 10° SSW 06:20:19 32° SSE 06:33:41 10° E daylight
27 May - 08:17:06 10° WSW 08:30:03 49° S 08:46:39 10° ESE daylight
27 May - 10:26:13 10° W 10:41:11 48° SSW 10:57:28 10° SE daylight
27 May - 12:37:39 10° W 12:51:49 32° SSW 13:05:07 10° SSE daylight
27 May - 14:57:15 10° WSW 15:00:32 11° SW 15:03:43 10° SW daylight
28 May - 04:24:20 10° SSE 04:29:18 14° SE 04:35:13 10° ESE visible
28 May - 06:26:53 10° SW 06:37:05 37° SSE 06:51:18 10° E daylight
28 May - 08:34:05 10° WSW 08:47:09 50° S 09:03:52 10° ESE daylight
28 May - 10:43:31 10° W 10:58:16 45° SSW 11:14:13 10° SE daylight
28 May - 12:55:36 10° W 13:08:33 26° SW 13:20:50 10° SSE daylight
29 May - 04:39:12 10° S 04:45:44 19° SE 04:54:11 10° E visible
29 May - 06:43:29 10° SW 06:53:57 41° SSE 07:08:47 10° E daylight
29 May - 08:51:09 10° WSW 09:04:16 50° S 09:20:59 10° ESE daylight
29 May - 11:00:54 10° W 11:15:17 40° SSW 11:30:46 10° SE daylight
29 May - 13:14:01 10° W 13:25:12 21° SW 13:35:57 10° S daylight
30 May - 04:54:54 10° S 05:02:17 24° SE 05:12:23 10° E visible
30 May - 07:00:15 10° SW 07:10:54 44° SSE 07:26:09 10° E daylight
30 May - 09:08:17 10° WSW 09:21:24 49° S 09:37:59 10° ESE daylight
30 May - 11:18:24 10° W 11:32:15 35° SSW 11:47:03 10° SSE daylight
30 May - 13:33:21 10° WSW 13:41:48 15° SW 13:50:03 10° SSW daylight
31 May - 05:11:03 10° SSW 05:18:55 29° SSE 05:30:12 10° E daylight
31 May - 07:17:08 10° WSW 07:27:55 47° S 07:43:26 10° ESE daylight
31 May - 09:25:30 10° WSW 09:38:32 46° SSW 09:54:51 10° SE daylight
31 May - 11:36:08 10° W 11:49:08 30° SSW 12:02:59 10° SSE daylight
31 May - 13:56:22 10° SW 13:58:22 10° SW 14:00:21 10° SW daylight
01 Jun - 03:26:03 10° SSE 03:28:29 11° SE 03:31:10 10° ESE visible
01 Jun - 05:27:28 10° SSW 05:35:41 34° SSE 05:47:49 10° E daylight
01 Jun - 07:34:08 10° WSW 07:45:01 47° S 08:00:39 10° ESE daylight
01 Jun - 09:42:47 10° W 09:55:38 42° SSW 10:11:32 10° SE daylight
01 Jun - 11:54:10 10° W 12:05:58 25° SW 12:18:28 10° S daylight
02 Jun - 03:40:21 10° S 03:44:57 16° SE 03:50:45 10° ESE visible
02 Jun - 05:44:07 10° SW 05:52:32 38° SSE 06:05:17 10° E daylight
02 Jun - 07:51:12 10° WSW 08:02:07 47° S 08:17:44 10° ESE daylight
02 Jun - 10:00:12 10° W 10:12:42 37° SSW 10:27:58 10° SE daylight
02 Jun - 12:12:45 10° WSW 12:22:45 19° SW 12:33:14 10° S daylight
03 Jun - 03:55:58 10° S 04:01:31 20° SE 04:09:03 10° ESE visible
03 Jun - 06:00:54 10° SW 06:09:29 41° SSE 06:22:39 10° ESE daylight
03 Jun - 08:08:21 10° WSW 08:19:15 45° S 08:34:42 10° ESE daylight
03 Jun - 10:17:45 10° W 10:29:42 32° SSW 10:44:07 10° SSE daylight
03 Jun - 12:32:35 10° WSW 12:39:29 14° SW 12:46:38 10° SSW daylight
04 Jun - 04:12:07 10° SSW 04:18:11 25° SSE 04:26:53 10° E visible
04 Jun - 06:17:48 10° WSW 06:26:30 42° S 06:39:55 10° ESE daylight
04 Jun - 08:25:34 10° WSW 08:36:23 42° S 08:51:30 10° SE daylight
04 Jun - 10:35:33 10° W 10:46:41 27° SSW 10:59:51 10° SSE daylight
